| time (UTC) | temp F | wind direction | speed MPH | gust MPH | rain 1hr in | rain 24hr in | rain mn in | humidity % | barometer mb |
| 20260502151901 | 58 | 102 | 1.0 | 2.0 | 0.00 | 0.00 | 0.00 | 42 | 1021.9 |
| 20260502151357 | 60 | 97 | 1.0 | 2.0 | 0.00 | 0.00 | 0.00 | 41 | 1021.9 |
| 20260502150855 | 60 | 135 | 0.0 | 1.0 | 0.00 | 0.00 | 0.00 | 37 | 1021.9 |
| 20260502150351 | 59 | 147 | 0.0 | 1.0 | 0.00 | 0.00 | 0.00 | 41 | 1021.9 |
| 20260502130739 | 43 | 148 | 1.0 | 3.0 | 0.00 | 0.00 | 0.00 | 54 | 1021.4 |
| 20260502130237 | 41 | 146 | 2.0 | 2.0 | 0.00 | 0.00 | 0.00 | 59 | 1021.5 |
| 20260502123723 | 42 | 159 | 0.0 | 1.0 | 0.00 | 0.00 | 0.00 | 61 | 1021.1 |
| 20260502123219 | 41 | 170 | 1.0 | 1.0 | 0.00 | 0.00 | 0.00 | 61 | 1021.0 |
| 20260502122716 | 41 | 165 | 0.0 | 1.0 | 0.00 | 0.00 | 0.00 | 63 | 1021.1 |
| 20260502122212 | 41 | 161 | 0.0 | 0.0 | 0.00 | 0.00 | 0.00 | 63 | 1021.1 |
| 20260502121711 | 41 | 161 | 0.0 | 0.0 | 0.00 | 0.00 | 0.00 | 62 | 1020.9 |
| 20260502121208 | 42 | 163 | 0.0 | 1.0 | 0.00 | 0.00 | 0.00 | 61 | 1021.3 |
| 20260502120704 | 42 | 143 | 0.0 | 0.0 | 0.00 | 0.00 | 0.00 | 59 | 1021.1 |
| 20260502120201 | 42 | 135 | 1.0 | 1.0 | 0.00 | 0.00 | 0.00 | 60 | 1020.9 |
| 20260502115659 | 42 | 153 | 0.0 | 0.0 | 0.00 | 0.00 | 0.00 | 61 | 1021.1 |
| 20260502115155 | 42 | 140 | 0.0 | 0.0 | 0.00 | 0.00 | 0.00 | 62 | 1021.0 |
| 20260502114651 | 42 | 140 | 0.0 | 0.0 | 0.00 | 0.00 | 0.00 | 61 | 1021.3 |
| 20260502114149 | 42 | 123 | 1.0 | 2.0 | 0.00 | 0.00 | 0.00 | 59 | 1021.1 |
| 20260502113646 | 43 | 143 | 0.0 | 1.0 | 0.00 | 0.00 | 0.00 | 59 | 1021.1 |
| 20260502113144 | 42 | 118 | 1.0 | 1.0 | 0.00 | 0.00 | 0.00 | 60 | 1020.9 |
| 20260502112642 | 43 | 149 | 0.0 | 0.0 | 0.00 | 0.00 | 0.00 | 60 | 1021.1 |
| 20260502112139 | 43 | 162 | 0.0 | 0.0 | 0.00 | 0.00 | 0.00 | 60 | 1021.5 |
| 20260502111636 | 43 | 157 | 0.0 | 1.0 | 0.00 | 0.00 | 0.00 | 59 | 1021.4 |
| 20260502111134 | 43 | 170 | 0.0 | 1.0 | 0.00 | 0.00 | 0.00 | 59 | 1021.0 |
| 20260502110631 | 43 | 107 | 1.0 | 2.0 | 0.00 | 0.00 | 0.00 | 58 | 1021.3 |
| 20260502110128 | 43 | 165 | 0.0 | 1.0 | 0.00 | 0.00 | 0.00 | 58 | 1021.3 |
| 20260502105626 | 44 | 170 | 0.0 | 2.0 | 0.00 | 0.00 | 0.00 | 58 | 1021.1 |
| 20260502105123 | 44 | 140 | 0.0 | 1.0 | 0.00 | 0.00 | 0.00 | 58 | 1021.4 |
| 20260502104620 | 44 | 131 | 0.0 | 1.0 | 0.00 | 0.00 | 0.00 | 54 | 1021.3 |
| 20260502104118 | 44 | 165 | 1.0 | 2.0 | 0.00 | 0.00 | 0.00 | 53 | 1021.3 |
| 20260502103615 | 43 | 322 | 1.0 | 3.0 | 0.00 | 0.00 | 0.00 | 57 | 1021.4 |
| 20260502103113 | 43 | 141 | 0.0 | 0.0 | 0.00 | 0.00 | 0.00 | 58 | 1021.1 |
| 20260502102609 | 44 | 166 | 0.0 | 1.0 | 0.00 | 0.00 | 0.00 | 57 | 1021.3 |
| 20260502102106 | 44 | 163 | 0.0 | 0.0 | 0.00 | 0.00 | 0.00 | 55 | 1021.3 |
| 20260502101604 | 45 | 157 | 0.0 | 0.0 | 0.00 | 0.00 | 0.00 | 56 | 1021.3 |
| 20260502101102 | 45 | 147 | 1.0 | 1.0 | 0.00 | 0.00 | 0.00 | 55 | 1021.1 |
| 20260502100600 | 46 | 161 | 0.0 | 1.0 | 0.00 | 0.00 | 0.00 | 56 | 1021.1 |
| 20260502091032 | 49 | 150 | 0.0 | 0.0 | 0.00 | 0.00 | 0.00 | 47 | 1021.1 |
| 20260502090529 | 50 | 155 | 0.0 | 1.0 | 0.00 | 0.00 | 0.00 | 47 | 1020.9 |
| 20260502071424 | 49 | 163 | 2.0 | 2.0 | 0.00 | 0.00 | 0.00 | 49 | 1020.9 |
| 20260502070922 | 48 | 135 | 0.0 | 1.0 | 0.00 | 0.00 | 0.00 | 48 | 1021.1 |
| 20260502070420 | 48 | 164 | 0.0 | 1.0 | 0.00 | 0.00 | 0.00 | 53 | 1021.0 |
| 20260502065918 | 48 | 158 | 0.0 | 0.0 | 0.00 | 0.00 | 0.00 | 53 | 1020.9 |
| 20260502065416 | 48 | 161 | 0.0 | 0.0 | 0.00 | 0.00 | 0.00 | 53 | 1021.3 |
| 20260502064914 | 48 | 117 | 1.0 | 1.0 | 0.00 | 0.00 | 0.00 | 54 | 1020.9 |
| 20260502064411 | 48 | 161 | 0.0 | 1.0 | 0.00 | 0.00 | 0.00 | 53 | 1021.0 |
| 20260502063908 | 48 | 170 | 1.0 | 1.0 | 0.00 | 0.00 | 0.00 | 54 | 1020.9 |
| 20260502063406 | 49 | 171 | 1.0 | 1.0 | 0.00 | 0.00 | 0.00 | 53 | 1021.3 |
| 20260502062903 | 50 | 154 | 0.0 | 0.0 | 0.00 | 0.00 | 0.00 | 51 | 1021.0 |
| 20260502062400 | 50 | 175 | 1.0 | 1.0 | 0.00 | 0.00 | 0.00 | 50 | 1021.0 |
| 20260502061859 | 51 | 151 | 0.0 | 0.0 | 0.00 | 0.00 | 0.00 | 47 | 1020.9 |
| 20260502061357 | 51 | 149 | 0.0 | 0.0 | 0.00 | 0.00 | 0.00 | 46 | 1020.7 |
| 20260502060852 | 51 | 104 | 1.0 | 1.0 | 0.00 | 0.00 | 0.00 | 47 | 1020.8 |
| 20260502060347 | 51 | 152 | 0.0 | 2.0 | 0.00 | 0.00 | 0.00 | 47 | 1020.8 |
| 20260502055845 | 49 | 159 | 0.0 | 1.0 | 0.00 | 0.00 | 0.00 | 50 | 1020.7 |
| 20260502055343 | 49 | 152 | 0.0 | 1.0 | 0.00 | 0.00 | 0.00 | 51 | 1020.9 |
| 20260502054842 | 49 | 138 | 1.0 | 1.0 | 0.00 | 0.00 | 0.00 | 51 | 1020.9 |
| 20260502054339 | 50 | 158 | 0.0 | 0.0 | 0.00 | 0.00 | 0.00 | 51 | 1020.8 |
| 20260502053837 | 50 | 151 | 0.0 | 1.0 | 0.00 | 0.00 | 0.00 | 50 | 1020.6 |
| 20260502053334 | 51 | 158 | 0.0 | 0.0 | 0.00 | 0.00 | 0.00 | 49 | 1020.7 |
| 20260502052831 | 51 | 166 | 0.0 | 1.0 | 0.00 | 0.00 | 0.00 | 46 | 1020.8 |
| 20260502052329 | 51 | 149 | 1.0 | 1.0 | 0.00 | 0.00 | 0.00 | 46 | 1020.7 |
| 20260502051827 | 52 | 161 | 1.0 | 1.0 | 0.00 | 0.00 | 0.00 | 45 | 1020.6 |
| 20260502051326 | 52 | 162 | 1.0 | 2.0 | 0.00 | 0.00 | 0.00 | 44 | 1020.5 |
| 20260502050821 | 52 | 201 | 1.0 | 2.0 | 0.00 | 0.00 | 0.00 | 44 | 1020.7 |
| 20260502050318 | 52 | 151 | 0.0 | 1.0 | 0.00 | 0.00 | 0.00 | 46 | 1020.6 |
| 20260502045815 | 53 | 145 | 0.0 | 1.0 | 0.00 | 0.00 | 0.00 | 45 | 1020.5 |
| 20260502045312 | 55 | 159 | 0.0 | 1.0 | 0.00 | 0.00 | 0.00 | 44 | 1020.5 |
| 20260502044809 | 56 | 201 | 1.0 | 2.0 | 0.00 | 0.00 | 0.00 | 40 | 1020.6 |
| 20260502044305 | 55 | 88 | 1.0 | 2.0 | 0.00 | 0.00 | 0.00 | 38 | 1020.5 |
| 20260502043802 | 56 | 184 | 1.0 | 2.0 | 0.00 | 0.00 | 0.00 | 39 | 1020.5 |
| 20260502043300 | 57 | 137 | 0.0 | 1.0 | 0.00 | 0.00 | 0.00 | 38 | 1020.7 |
| 20260502042759 | 56 | 97 | 1.0 | 2.0 | 0.00 | 0.00 | 0.00 | 38 | 1020.3 |
| 20260502042256 | 55 | 140 | 0.0 | 0.0 | 0.00 | 0.00 | 0.00 | 40 | 1020.3 |
| 20260502041754 | 55 | 146 | 0.0 | 0.0 | 0.00 | 0.00 | 0.00 | 41 | 1020.6 |
| 20260502041251 | 55 | 154 | 0.0 | 0.0 | 0.00 | 0.00 | 0.00 | 42 | 1020.5 |
| 20260502040748 | 56 | 176 | 1.0 | 1.0 | 0.00 | 0.00 | 0.00 | 41 | 1020.3 |
| 20260502040245 | 56 | 161 | 0.0 | 1.0 | 0.00 | 0.00 | 0.00 | 39 | 1020.3 |
| 20260502035741 | 56 | 182 | 1.0 | 2.0 | 0.00 | 0.00 | 0.00 | 40 | 1020.5 |
| 20260502035238 | 57 | 163 | 0.0 | 1.0 | 0.00 | 0.00 | 0.00 | 39 | 1020.2 |
| 20260502034736 | 57 | 130 | 0.0 | 2.0 | 0.00 | 0.00 | 0.00 | 39 | 1020.2 |
| 20260502034233 | 58 | 141 | 0.0 | 1.0 | 0.00 | 0.00 | 0.00 | 38 | 1020.2 |
| 20260502033731 | 58 | 105 | 1.0 | 2.0 | 0.00 | 0.00 | 0.00 | 38 | 1020.1 |
| 20260502033229 | 58 | 142 | 0.0 | 1.0 | 0.00 | 0.00 | 0.00 | 38 | 1020.1 |
| 20260502032725 | 58 | 136 | 0.0 | 1.0 | 0.00 | 0.00 | 0.00 | 38 | 1020.0 |
| 20260502032221 | 58 | 139 | 0.0 | 3.0 | 0.00 | 0.00 | 0.00 | 40 | 1020.0 |
| 20260502031720 | 58 | 128 | 1.0 | 1.0 | 0.00 | 0.00 | 0.00 | 37 | 1019.9 |
| 20260502031217 | 58 | 133 | 0.0 | 1.0 | 0.00 | 0.00 | 0.00 | 40 | 1019.5 |
| 20260502030716 | 58 | 159 | 0.0 | 0.0 | 0.00 | 0.00 | 0.00 | 38 | 1019.8 |
| 20260502030214 | 59 | 163 | 0.0 | 0.0 | 0.00 | 0.00 | 0.00 | 37 | 1019.5 |
| 20260502025710 | 59 | 160 | 0.0 | 1.0 | 0.00 | 0.00 | 0.00 | 37 | 1019.4 |
| 20260502025208 | 59 | 143 | 0.0 | 0.0 | 0.00 | 0.00 | 0.00 | 36 | 1019.3 |
| 20260502024706 | 59 | 149 | 0.0 | 0.0 | 0.00 | 0.00 | 0.00 | 36 | 1019.4 |
| 20260502024204 | 60 | 147 | 0.0 | 0.0 | 0.00 | 0.00 | 0.00 | 36 | 1019.5 |
| 20260502023701 | 60 | 145 | 0.0 | 0.0 | 0.00 | 0.00 | 0.00 | 38 | 1019.2 |
| 20260502023158 | 60 | 146 | 0.0 | 0.0 | 0.00 | 0.00 | 0.00 | 39 | 1019.2 |
| 20260502022655 | 61 | 149 | 0.0 | 0.0 | 0.00 | 0.00 | 0.00 | 34 | 1019.2 |
| 20260502022152 | 62 | 149 | 0.0 | 0.0 | 0.00 | 0.00 | 0.00 | 35 | 1019.2 |
| 20260502021649 | 63 | 160 | 0.0 | 0.0 | 0.00 | 0.00 | 0.00 | 32 | 1019.1 |
| 20260502021147 | 64 | 162 | 0.0 | 1.0 | 0.00 | 0.00 | 0.00 | 31 | 1019.2 |
| 20260502020644 | 64 | 160 | 0.0 | 1.0 | 0.00 | 0.00 | 0.00 | 29 | 1019.2 |
| 20260502020140 | 65 | 171 | 1.0 | 2.0 | 0.00 | 0.00 | 0.00 | 28 | 1019.1 |
| 20260502015639 | 65 | 165 | 1.0 | 3.0 | 0.00 | 0.00 | 0.00 | 28 | 1019.1 |
| 20260502015134 | 66 | 153 | 1.0 | 4.0 | 0.00 | 0.00 | 0.00 | 28 | 1018.9 |
| 20260502014632 | 67 | 164 | 1.0 | 2.0 | 0.00 | 0.00 | 0.00 | 26 | 1019.1 |
| 20260502014129 | 67 | 146 | 0.0 | 1.0 | 0.00 | 0.00 | 0.00 | 26 | 1018.9 |
| 20260502013625 | 67 | 137 | 1.0 | 2.0 | 0.00 | 0.00 | 0.00 | 25 | 1019.0 |
| 20260502013121 | 68 | 124 | 2.0 | 3.0 | 0.00 | 0.00 | 0.00 | 25 | 1019.0 |
| 20260502012619 | 68 | 178 | 3.0 | 9.0 | 0.00 | 0.00 | 0.00 | 25 | 1018.9 |
| 20260502012116 | 68 | 167 | 1.0 | 6.0 | 0.00 | 0.00 | 0.00 | 24 | 1018.9 |
| 20260502011613 | 67 | 207 | 4.0 | 6.0 | 0.00 | 0.00 | 0.00 | 25 | 1018.8 |
| 20260502011108 | 68 | 171 | 4.0 | 6.0 | 0.00 | 0.00 | 0.00 | 24 | 1018.9 |
| 20260502010607 | 68 | 115 | 2.0 | 4.0 | 0.00 | 0.00 | 0.00 | 24 | 1018.9 |
| 20260502005600 | 68 | 122 | 1.0 | 3.0 | 0.00 | 0.00 | 0.00 | 25 | 1019.0 |
| 20260502005058 | 68 | 156 | 1.0 | 4.0 | 0.00 | 0.00 | 0.00 | 24 | 1018.6 |
| 20260502004553 | 68 | 203 | 3.0 | 7.0 | 0.00 | 0.00 | 0.00 | 25 | 1018.8 |
| 20260502004050 | 68 | 129 | 4.0 | 7.0 | 0.00 | 0.00 | 0.00 | 25 | 1018.8 |
| 20260502003548 | 68 | 177 | 3.0 | 6.0 | 0.00 | 0.00 | 0.00 | 25 | 1018.8 |
| 20260502003045 | 68 | 164 | 2.0 | 2.0 | 0.00 | 0.00 | 0.00 | 26 | 1018.9 |
| 20260502002541 | 68 | 214 | 3.0 | 4.0 | 0.00 | 0.00 | 0.00 | 24 | 1019.0 |
| 20260502002038 | 69 | 132 | 2.0 | 6.0 | 0.00 | 0.00 | 0.00 | 24 | 1018.8 |
| 20260502001536 | 69 | 185 | 2.0 | 6.0 | 0.00 | 0.00 | 0.00 | 24 | 1018.9 |
| 20260502001033 | 69 | 192 | 2.0 | 4.0 | 0.00 | 0.00 | 0.00 | 24 | 1019.0 |
| 20260502000532 | 69 | 158 | 3.0 | 3.0 | 0.00 | 0.00 | 0.00 | 24 | 1018.9 |
| 20260502000028 | 69 | 199 | 2.0 | 4.0 | 0.00 | 0.00 | 0.00 | 23 | 1019.1 |
| 20260501235524 | 69 | 224 | 3.0 | 3.0 | 0.00 | 0.00 | 0.00 | 24 | 1019.1 |
| 20260501235020 | 69 | 168 | 1.0 | 4.0 | 0.00 | 0.00 | 0.00 | 24 | 1018.9 |
| 20260501234516 | 68 | 186 | 2.0 | 4.0 | 0.00 | 0.00 | 0.00 | 25 | 1019.0 |
| 20260501234014 | 68 | 133 | 2.0 | 6.0 | 0.00 | 0.00 | 0.00 | 25 | 1019.1 |
| 20260501233512 | 69 | 148 | 1.0 | 4.0 | 0.00 | 0.00 | 0.00 | 24 | 1019.2 |
| 20260501233008 | 69 | 214 | 2.0 | 4.0 | 0.00 | 0.00 | 0.00 | 24 | 1019.2 |
| 20260501232504 | 68 | 212 | 3.0 | 6.0 | 0.00 | 0.00 | 0.00 | 24 | 1019.2 |
| 20260501232001 | 68 | 161 | 3.0 | 7.0 | 0.00 | 0.00 | 0.00 | 24 | 1019.2 |
| 20260501231500 | 68 | 231 | 4.0 | 7.0 | 0.00 | 0.00 | 0.00 | 24 | 1019.2 |
| 20260501230958 | 68 | 201 | 5.0 | 10.0 | 0.00 | 0.00 | 0.00 | 25 | 1019.1 |
| 20260501230456 | 68 | 221 | 2.0 | 6.0 | 0.00 | 0.00 | 0.00 | 25 | 1019.3 |
| 20260501225954 | 69 | 119 | 4.0 | 11.0 | 0.00 | 0.00 | 0.00 | 24 | 1019.4 |
| 20260501225451 | 69 | 316 | 2.0 | 4.0 | 0.00 | 0.00 | 0.00 | 24 | 1019.2 |
| 20260501224947 | 69 | 261 | 3.0 | 9.0 | 0.00 | 0.00 | 0.00 | 24 | 1019.2 |
| 20260501224445 | 69 | 232 | 5.0 | 8.0 | 0.00 | 0.00 | 0.00 | 23 | 1019.3 |
| 20260501223942 | 69 | 172 | 4.0 | 4.0 | 0.00 | 0.00 | 0.00 | 24 | 1019.5 |
| 20260501223438 | 68 | 245 | 3.0 | 6.0 | 0.00 | 0.00 | 0.00 | 25 | 1019.3 |
| 20260501222933 | 68 | 179 | 2.0 | 7.0 | 0.00 | 0.00 | 0.00 | 26 | 1019.8 |
| 20260501222431 | 69 | 226 | 3.0 | 6.0 | 0.00 | 0.00 | 0.00 | 26 | 1019.8 |
| 20260501221927 | 69 | 143 | 2.0 | 4.0 | 0.00 | 0.00 | 0.00 | 25 | 1019.8 |
| 20260501221424 | 69 | 148 | 3.0 | 6.0 | 0.00 | 0.00 | 0.00 | 24 | 1019.8 |
| 20260501220922 | 69 | 149 | 4.0 | 7.0 | 0.00 | 0.00 | 0.00 | 25 | 1019.8 |
| 20260501220420 | 68 | 120 | 1.0 | 4.0 | 0.00 | 0.00 | 0.00 | 25 | 1020.0 |
| 20260501215915 | 68 | 143 | 0.0 | 3.0 | 0.00 | 0.00 | 0.00 | 25 | 1020.1 |
| 20260501215412 | 68 | 189 | 2.0 | 10.0 | 0.00 | 0.00 | 0.00 | 26 | 1020.2 |
| 20260501214908 | 68 | 136 | 4.0 | 8.0 | 0.00 | 0.00 | 0.00 | 25 | 1020.1 |
| 20260501214403 | 68 | 150 | 3.0 | 4.0 | 0.00 | 0.00 | 0.00 | 24 | 1020.1 |
| 20260501213859 | 68 | 212 | 6.0 | 7.0 | 0.00 | 0.00 | 0.00 | 24 | 1020.2 |
| 20260501213355 | 67 | 214 | 7.0 | 10.0 | 0.00 | 0.00 | 0.00 | 25 | 1020.5 |
| 20260501212851 | 67 | 217 | 5.0 | 9.0 | 0.00 | 0.00 | 0.00 | 25 | 1020.1 |
| 20260501212348 | 67 | 177 | 6.0 | 9.0 | 0.00 | 0.00 | 0.00 | 25 | 1020.3 |
| 20260501211845 | 67 | 120 | 3.0 | 11.0 | 0.00 | 0.00 | 0.00 | 25 | 1020.7 |
| 20260501211343 | 67 | 164 | 4.0 | 8.0 | 0.00 | 0.00 | 0.00 | 26 | 1020.6 |
| 20260501210839 | 67 | 175 | 2.0 | 6.0 | 0.00 | 0.00 | 0.00 | 26 | 1020.6 |
| 20260501210337 | 67 | 139 | 4.0 | 7.0 | 0.00 | 0.00 | 0.00 | 26 | 1020.7 |
| 20260501205833 | 66 | 156 | 2.0 | 6.0 | 0.00 | 0.00 | 0.00 | 25 | 1020.5 |
| 20260501205330 | 67 | 154 | 3.0 | 8.0 | 0.00 | 0.00 | 0.00 | 25 | 1020.6 |
| 20260501204827 | 67 | 142 | 3.0 | 6.0 | 0.00 | 0.00 | 0.00 | 26 | 1020.6 |
| 20260501204323 | 68 | 194 | 3.0 | 8.0 | 0.00 | 0.00 | 0.00 | 25 | 1020.5 |
| 20260501203819 | 67 | 166 | 1.0 | 3.0 | 0.00 | 0.00 | 0.00 | 25 | 1020.5 |
| 20260501203317 | 67 | 207 | 2.0 | 9.0 | 0.00 | 0.00 | 0.00 | 26 | 1020.6 |
| 20260501202814 | 67 | 133 | 2.0 | 4.0 | 0.00 | 0.00 | 0.00 | 25 | 1020.7 |
| 20260501202311 | 67 | 97 | 2.0 | 9.0 | 0.00 | 0.00 | 0.00 | 24 | 1020.6 |
| 20260501201808 | 67 | 217 | 2.0 | 14.0 | 0.00 | 0.00 | 0.00 | 25 | 1020.6 |
| 20260501201304 | 66 | 143 | 6.0 | 9.0 | 0.00 | 0.00 | 0.00 | 24 | 1020.5 |
| 20260501200801 | 67 | 158 | 4.0 | 8.0 | 0.00 | 0.00 | 0.00 | 25 | 1020.6 |
| 20260501200258 | 66 | 190 | 4.0 | 4.0 | 0.00 | 0.00 | 0.00 | 25 | 1020.6 |
| 20260501195755 | 66 | 212 | 2.0 | 9.0 | 0.00 | 0.00 | 0.00 | 26 | 1020.6 |
| 20260501195251 | 66 | 121 | 2.0 | 6.0 | 0.00 | 0.00 | 0.00 | 26 | 1020.8 |
| 20260501194748 | 65 | 117 | 3.0 | 10.0 | 0.00 | 0.00 | 0.00 | 25 | 1020.9 |
| 20260501194243 | 66 | 169 | 3.0 | 7.0 | 0.00 | 0.00 | 0.00 | 28 | 1020.8 |
| 20260501193740 | 66 | 189 | 7.0 | 8.0 | 0.00 | 0.00 | 0.00 | 24 | 1020.8 |
| 20260501193239 | 67 | 128 | 2.0 | 8.0 | 0.00 | 0.00 | 0.00 | 24 | 1020.7 |
| 20260501192736 | 66 | 138 | 1.0 | 4.0 | 0.00 | 0.00 | 0.00 | 26 | 1020.8 |
| 20260501192232 | 66 | 128 | 2.0 | 7.0 | 0.00 | 0.00 | 0.00 | 24 | 1021.0 |
| 20260501191730 | 66 | 199 | 5.0 | 7.0 | 0.00 | 0.00 | 0.00 | 24 | 1021.1 |
| 20260501191227 | 65 | 152 | 0.0 | 4.0 | 0.00 | 0.00 | 0.00 | 28 | 1021.0 |
| 20260501190723 | 66 | 144 | 4.0 | 8.0 | 0.00 | 0.00 | 0.00 | 25 | 1021.3 |
| 20260501190219 | 66 | 149 | 0.0 | 6.0 | 0.00 | 0.00 | 0.00 | 26 | 1021.1 |
| 20260501185715 | 65 | 191 | 4.0 | 6.0 | 0.00 | 0.00 | 0.00 | 26 | 1021.3 |
| 20260501185211 | 66 | 165 | 2.0 | 7.0 | 0.00 | 0.00 | 0.00 | 26 | 1021.1 |
| 20260501184707 | 66 | 215 | 2.0 | 4.0 | 0.00 | 0.00 | 0.00 | 26 | 1021.3 |
| 20260501184202 | 65 | 233 | 4.0 | 4.0 | 0.00 | 0.00 | 0.00 | 24 | 1021.4 |
| 20260501183659 | 65 | 167 | 1.0 | 4.0 | 0.00 | 0.00 | 0.00 | 25 | 1021.4 |
| 20260501183156 | 64 | 142 | 0.0 | 2.0 | 0.00 | 0.00 | 0.00 | 27 | 1021.4 |
| 20260501182652 | 64 | 80 | 4.0 | 7.0 | 0.00 | 0.00 | 0.00 | 21 | 1021.4 |
| 20260501182149 | 64 | 63 | 3.0 | 6.0 | 0.00 | 0.00 | 0.00 | 23 | 1021.6 |
| 20260501181646 | 65 | 65 | 3.0 | 4.0 | 0.00 | 0.00 | 0.00 | 22 | 1021.6 |
| 20260501181143 | 65 | 105 | 2.0 | 4.0 | 0.00 | 0.00 | 0.00 | 20 | 1021.7 |
| 20260501180641 | 65 | 80 | 2.0 | 3.0 | 0.00 | 0.00 | 0.00 | 21 | 1021.8 |
| 20260501180137 | 64 | 145 | 0.0 | 2.0 | 0.00 | 0.00 | 0.00 | 24 | 1021.7 |
| 20260501175634 | 63 | 209 | 3.0 | 4.0 | 0.00 | 0.00 | 0.00 | 23 | 1021.6 |
| 20260501175131 | 63 | 237 | 3.0 | 7.0 | 0.00 | 0.00 | 0.00 | 22 | 1021.8 |
| 20260501174627 | 62 | 168 | 3.0 | 10.0 | 0.00 | 0.00 | 0.00 | 22 | 1021.7 |
| 20260501174125 | 63 | 200 | 2.0 | 10.0 | 0.00 | 0.00 | 0.00 | 24 | 1021.7 |
| 20260501173622 | 63 | 177 | 0.0 | 7.0 | 0.00 | 0.00 | 0.00 | 23 | 1021.8 |
| 20260501173119 | 64 | 240 | 4.0 | 8.0 | 0.00 | 0.00 | 0.00 | 22 | 1021.9 |
| 20260501172615 | 63 | 197 | 6.0 | 8.0 | 0.00 | 0.00 | 0.00 | 24 | 1021.9 |
| 20260501172110 | 63 | 264 | 9.0 | 10.0 | 0.00 | 0.00 | 0.00 | 22 | 1021.8 |
| 20260501171606 | 63 | 203 | 4.0 | 6.0 | 0.00 | 0.00 | 0.00 | 24 | 1022.2 |
| 20260501171104 | 63 | 265 | 4.0 | 10.0 | 0.00 | 0.00 | 0.00 | 25 | 1021.9 |
| 20260501170600 | 62 | 55 | 4.0 | 6.0 | 0.00 | 0.00 | 0.00 | 23 | 1021.9 |
| 20260501170057 | 62 | 177 | 2.0 | 9.0 | 0.00 | 0.00 | 0.00 | 24 | 1021.9 |
| 20260501165555 | 61 | 267 | 5.0 | 7.0 | 0.00 | 0.00 | 0.00 | 25 | 1021.7 |
| 20260501165052 | 61 | 79 | 3.0 | 9.0 | 0.00 | 0.00 | 0.00 | 24 | 1022.2 |
| 20260501164550 | 61 | 65 | 2.0 | 9.0 | 0.00 | 0.00 | 0.00 | 25 | 1022.2 |
| 20260501164046 | 60 | 43 | 6.0 | 9.0 | 0.00 | 0.00 | 0.00 | 24 | 1022.0 |
| 20260501163543 | 60 | 25 | 5.0 | 14.0 | 0.00 | 0.00 | 0.00 | 24 | 1022.0 |
| 20260501163040 | 60 | 329 | 4.0 | 8.0 | 0.00 | 0.00 | 0.00 | 24 | 1022.2 |
| 20260501162536 | 60 | 7 | 5.0 | 10.0 | 0.00 | 0.00 | 0.00 | 25 | 1021.9 |
| 20260501162033 | 60 | 279 | 6.0 | 10.0 | 0.00 | 0.00 | 0.00 | 26 | 1022.2 |
| 20260501161530 | 60 | 267 | 5.0 | 8.0 | 0.00 | 0.00 | 0.00 | 28 | 1021.9 |
| 20260501161027 | 60 | 233 | 6.0 | 9.0 | 0.00 | 0.00 | 0.00 | 26 | 1022.0 |
| 20260501160524 | 59 | 197 | 4.0 | 9.0 | 0.00 | 0.00 | 0.00 | 27 | 1021.9 |
| 20260501160021 | 59 | 227 | 6.0 | 13.0 | 0.00 | 0.00 | 0.00 | 26 | 1022.2 |
| 20260501155517 | 59 | 157 | 6.0 | 9.0 | 0.00 | 0.00 | 0.00 | 28 | 1021.9 |
| 20260501155015 | 59 | 232 | 7.0 | 8.0 | 0.00 | 0.00 | 0.00 | 27 | 1021.9 |
| 20260501154513 | 58 | 231 | 9.0 | 11.0 | 0.00 | 0.00 | 0.00 | 27 | 1021.8 |
| 20260501154009 | 58 | 240 | 6.0 | 10.0 | 0.00 | 0.00 | 0.00 | 27 | 1022.0 |
| 20260501153507 | 58 | 213 | 3.0 | 10.0 | 0.00 | 0.00 | 0.00 | 27 | 1022.0 |
| 20260501153002 | 59 | 240 | 4.0 | 7.0 | 0.00 | 0.00 | 0.00 | 28 | 1021.9 |